HB9KNR Weather Reports


Display with metric or nautical units.
time (UTC)temp
F
wind
direction
speed
MPH
gust
MPH
rain 1hr
in
rain 24hr
in
rain mn
in
humidity
%
barometer
mb
20260505041517 48 0.0 0.0 0.00 0.00 0.00 89 1009.2
20260505040515 49 0.0 0.0 0.00 0.00 0.00 89 1009.3
20260505035517 49 0.0 0.0 0.00 0.00 0.00 89 1009.3
20260505034517 49 0.0 0.0 0.00 0.00 0.00 89 1009.5
20260505033517 49 0.0 0.0 0.00 0.00 0.00 89 1009.6
20260505032517 49 0.0 0.0 0.00 0.00 0.00 89 1009.6
20260505031537 49 0.0 0.0 0.00 0.00 0.00 89 1009.7
20260505030517 50 0.0 0.0 0.00 0.00 0.00 88 1009.9
20260505025537 50 0.0 0.0 0.00 0.00 0.00 88 1009.9
20260505024517 50 0.0 0.0 0.00 0.00 0.00 88 1009.9
20260505023537 50 0.0 0.0 0.00 0.00 0.00 88 1009.8
20260505022517 50 0.0 0.0 0.00 0.00 0.00 88 1010.0
20260505021517 50 0.0 0.0 0.00 0.00 0.00 88 1010.2
20260505020517 51 0.0 0.0 0.00 0.00 0.00 87 1010.4
20260505015517 51 0.0 0.0 0.00 0.00 0.00 87 1010.3
20260505014517 51 0.0 0.0 0.00 0.00 0.00 87 1010.4
20260505013517 51 0.0 0.0 0.00 0.00 0.00 87 1010.4
20260505012517 51 0.0 0.0 0.00 0.00 0.00 87 1010.5
20260505011537 52 0.0 0.0 0.00 0.00 0.00 87 1010.4
20260505010517 52 0.0 0.0 0.00 0.00 0.00 86 1010.6
20260505005517 52 0.0 0.0 0.00 0.00 0.00 86 1010.8
20260505004517 52 0.0 0.0 0.00 0.00 0.00 86 1011.0
20260505003517 52 0.0 0.0 0.00 0.00 0.00 85 1011.1
20260505002517 53 0.0 0.0 0.00 0.00 0.00 85 1011.2
20260505001517 53 0.0 0.0 0.00 0.00 0.00 85 1011.4
20260505000519 53 0.0 0.0 0.00 0.00 0.00 85 1011.3
20260504235517 53 0.0 0.0 0.00 0.00 0.00 85 1011.5
20260504234517 54 0.0 0.0 0.00 0.00 0.00 84 1011.6
20260504233517 54 0.0 0.0 0.00 0.00 0.00 84 1011.6
20260504232517 54 0.0 0.0 0.00 0.00 0.00 84 1011.6
20260504231517 54 0.0 0.0 0.00 0.00 0.00 84 1011.8
20260504230557 55 0.0 0.0 0.00 0.00 0.00 84 1011.7
20260504225537 55 0.0 0.0 0.00 0.00 0.00 84 1011.8
20260504224517 55 0.0 0.0 0.00 0.00 0.00 83 1011.8
20260504223537 55 0.0 0.0 0.00 0.00 0.00 83 1012.0
20260504222617 55 0.0 0.0 0.00 0.00 0.00 83 1012.1
20260504221517 56 0.0 0.0 0.00 0.00 0.00 82 1012.1
20260504220517 56 0.0 0.0 0.00 0.00 0.00 82 1012.1
20260504215516 56 0.0 0.0 0.00 0.00 0.00 82 1012.2
20260504214516 56 0.0 0.0 0.00 0.00 0.00 81 1012.1
20260504213516 57 0.0 0.0 0.00 0.00 0.00 81 1012.2
20260504212515 57 0.0 0.0 0.00 0.00 0.00 80 1012.2
20260504211516 57 0.0 0.0 0.00 0.00 0.00 79 1012.1
20260504210516 58 0.0 0.0 0.00 0.00 0.00 79 1012.0
20260504205516 58 0.0 0.0 0.00 0.00 0.00 78 1012.0
20260504204516 58 0.0 0.0 0.00 0.00 0.00 77 1012.0
20260504203516 58 0.0 0.0 0.00 0.00 0.00 76 1012.0
20260504202516 58 0.0 0.0 0.00 0.00 0.00 75 1011.9
20260504201516 58 0.0 0.0 0.00 0.00 0.00 74 1011.6
20260504200516 59 0.0 0.0 0.00 0.00 0.00 73 1011.7
20260504195536 59 0.0 0.0 0.00 0.00 0.00 72 1011.6
20260504194517 59 0.0 0.0 0.00 0.00 0.00 71 1011.6
20260504193537 60 0.0 0.0 0.00 0.00 0.00 70 1011.5
20260504192516 61 0.0 0.0 0.00 0.00 0.00 67 1011.5
20260504191517 61 0.0 0.0 0.00 0.00 0.00 65 1011.7
20260504190516 62 0.0 0.0 0.00 0.00 0.00 63 1011.6
20260504185517 63 0.0 0.0 0.00 0.00 0.00 60 1011.7
20260504184537 64 0.0 0.0 0.00 0.00 0.00 59 1011.4
20260504183516 65 0.0 0.0 0.00 0.00 0.00 56 1011.6
20260504182516 66 0.0 0.0 0.00 0.00 0.00 55 1011.6
20260504181557 66 0.0 0.0 0.00 0.00 0.00 52 1011.3
20260504180517 67 0.0 0.0 0.00 0.00 0.00 50 1011.4
20260504175517 67 0.0 0.0 0.00 0.00 0.00 49 1011.4
20260504174517 67 0.0 0.0 0.00 0.00 0.00 48 1011.4
20260504173516 68 0.0 0.0 0.00 0.00 0.00 48 1011.3
20260504172517 68 0.0 0.0 0.00 0.00 0.00 47 1011.5
20260504171537 69 0.0 0.0 0.00 0.00 0.00 46 1011.5
20260504170516 70 0.0 0.0 0.00 0.00 0.00 46 1011.6
20260504150516 72 0.0 0.0 0.00 0.00 0.00 40 1011.0
20260504140516 72 0.0 0.0 0.00 0.00 0.00 39 1011.2
20260504130516 71 0.0 0.0 0.00 0.00 0.00 41 1011.8
20260504110516 72 0.0 0.0 0.00 0.00 0.00 48 1012.6
20260504100516 69 0.0 0.0 0.00 0.00 0.00 50 1013.0
20260504081516 62 0.0 0.0 0.00 0.00 0.00 64 1014.1
20260504080516 62 0.0 0.0 0.00 0.00 0.00 64 1014.2
20260504050516 50 0.0 0.0 0.00 0.00 0.00 87 1014.5
20260504045516 50 0.0 0.0 0.00 0.00 0.00 86 1014.3
20260504044516 49 0.0 0.0 0.00 0.00 0.00 86 1014.4
20260504043536 49 0.0 0.0 0.00 0.00 0.00 85 1014.4
20260504042535 50 0.0 0.0 0.00 0.00 0.00 84 1014.5